Location: Newark
(48.6767°N, 1.3256°E)
Time: 08:15:15
(UTC+00:00)

N. Korean satellite - Visible Passes

Search period start: 22 November 2019 00:00
Search period end: 02 December 2019 00:00
Orbit: 456 x 506 km, 97.2° (Epoch: 21 November)

Date Brightness Start Highest point End Pass type
(mag) Time Alt. Az. Time Alt. Az. Time Alt. Az.
22 Nov 9.8 04:53:08 10° NE 04:55:33 16° E 04:57:56 10° SE visible
22 Nov 7.0 06:25:39 10° N 06:29:10 42° WNW 06:32:37 10° SW visible
22 Nov 7.1 17:04:13 10° S 17:07:51 64° W 17:11:34 10° NNW visible
23 Nov 6.5 06:00:07 10° NNE 06:03:50 85° WNW 06:07:28 10° SSW visible
23 Nov 6.6 16:38:50 10° SSE 16:42:28 63° ENE 16:46:10 10° N visible
23 Nov 10.2 18:14:56 10° WSW 18:16:17 12° W 18:17:38 10° WNW visible
24 Nov 7.7 05:34:48 10° NNE 05:38:25 47° E 05:41:55 10° S visible
24 Nov 9.4 17:47:45 10° SW 17:50:39 21° W 17:53:33 10° NW visible
25 Nov 9.1 05:09:47 10° NE 05:12:53 25° E 05:15:54 10° SSE visible
25 Nov 8.2 17:21:36 10° SSW 17:25:05 40° W 17:28:38 10° NNW visible
26 Nov 10.0 04:45:23 10° ENE 04:47:14 13° E 04:49:06 10° ESE visible
26 Nov 6.7 06:17:22 10° N 06:20:58 52° WNW 06:24:29 10° SSW visible
26 Nov 6.8 16:55:56 10° S 16:59:38 81° WSW 17:03:23 10° NNW visible
27 Nov 6.7 05:51:54 10° NNE 05:55:36 78° ESE 05:59:12 10° S visible
27 Nov 6.8 16:30:40 10° SSE 16:34:15 51° ENE 16:37:54 10° N visible
27 Nov 10.0 18:05:54 10° WSW 18:07:57 14° W 18:10:01 10° NW visible
28 Nov 8.1 05:26:40 10° NNE 05:30:08 38° E 05:33:30 10° SSE visible
28 Nov 9.1 17:39:12 10° SSW 17:42:20 26° W 17:45:31 10° NW visible
29 Nov 9.4 05:01:46 10° NE 05:04:33 20° E 05:07:17 10° SE visible
29 Nov 7.3 06:34:43 10° N 06:38:02 33° WNW 06:41:18 10° SW visible
29 Nov 7.7 17:13:12 10° S 17:16:48 49° W 17:20:27 10° NNW visible
30 Nov 10.2 04:37:57 10° ENE 04:38:53 11° E 04:39:47 10° ESE visible
30 Nov 6.5 06:09:05 10° N 06:12:43 65° WNW 06:16:16 10° SSW visible
30 Nov 6.6 16:47:39 10° SSE 16:51:22 82° ENE 16:55:07 10° N visible
01 Dec 7.1 05:43:40 10° NNE 05:47:18 62° ESE 05:50:50 10° S visible
01 Dec 9.8 17:57:04 10° SW 17:59:36 17° W 18:02:08 10° NW visible
